Regional Weather Roundup
Issued by NWS Kansas City/Pleasant Hill, MO

Home | Current Version | Previous Version | Text Only | Print | Product List | Glossary On
Versions: 1 2 3 4 5 6 7 8 9 10 11 12 13 14 15 16 17 18 19 20 21 22 23 24 25 26 27 28 29 30 31 32 33 34 35 36 37 38 39 40 41 42 43 44 45 46 47 48 49 50
951
ASUS43 KEAX 291910
RWREAX

WEATHER ROUNDUP FOR EASTERN KANSAS AND NORTHWEST MISSOURI
NATIONAL WEATHER SERVICE KANSAS CITY/PLEASANT HILL MO
200 PM CDT FRI JUL 29 2016

KSZ040-057-103>105-MOZ028-029-037-043-292000-
...KANSAS CITY METROPOLITAN AREA...

CITY           SKY/WX    TMP DP  RH WIND       PRES   REMARKS
K.C. INTL      MOSUNNY   81  61  50 CALM      30.00F
K.C. DOWNTOWN  PTSUNNY   85  65  51 N8        29.98F
LEES SUMMIT    PTSUNNY   83  66  56 N6        30.00F
OLATHE - IXD   PTSUNNY   83  66  56 NW6       30.00F
OLATHE - OJC   PTSUNNY   82  64  54 NW3       30.00F
LAWRENCE       PTSUNNY   82  67  60 N7        30.00F

$$

MOZ001>008-011>017-020>025-030>033-038>040-044>046-053-054-292000-
...NORTHERN AND CENTRAL MISSOURI...

CITY           SKY/WX    TMP DP  RH WIND       PRES   REMARKS
ST. JOSEPH     MOSUNNY   82  65  56 N9        30.01F
MOSBY          PTCLDY    82  61  47 W5        29.99F
WHITEMAN AFB   PTSUNNY   82  69  65 NW8       29.96F
CLINTON        CLOUDY    82  72  69 CALM      29.97F
SEDALIA        PTSUNNY   82  70  66 N10       29.98F
WARSAW         NOT AVBL
CHILLICOTHE      N/A     83  64  52 VRB3      29.99F
KIRKSVILLE     CLOUDY    80  64  58 NW8       29.99F

$$

MOZ041-047>049-056>058-063>065-088>090-097-292000-
...EASTERN AND SOUTHERN MISSOURI...

CITY           SKY/WX    TMP DP  RH WIND       PRES   REMARKS
ST. LOUIS INTL CLOUDY    85  66  53 NW7       29.95F
SPIRIT OF STL  MOSUNNY   85  68  56 NW7       29.93F
COLUMBIA       MOSUNNY   82  69  64 N10       29.96F
JEFFERSON CITY PTSUNNY   82  71  69 NW8       29.94F
ROLLA          PTSUNNY   80  71  74 N7        29.95F
OSAGE BEACH    PTSUNNY   83  72  69 VRB5      29.96F
SPRINGFIELD    CLOUDY    82  70  66 W7        29.98S
BRANSON        LGT RAIN  72  68  88 W12G21    30.01F
JOPLIN         MOSUNNY   86  70  58 N6        29.99F HX  90
WEST PLAINS    MOSUNNY   85  69  58 W5        29.97F

$$

IAZ060-094-KSZ022-034>040-054-083-096-NEZ052-066-093-292000-
...KANSAS...SOUTHEAST NEBRASKA AND IOWA...

CITY           SKY/WX    TMP DP  RH WIND       PRES   REMARKS
TOPEKA         CLOUDY    81  64  56 NE3       30.01S
MANHATTAN      MOSUNNY   82  68  62 VRB5      30.02F
EMPORIA        MOSUNNY   84  66  54 W5        30.01F
CHANUTE        MOSUNNY   85  68  56 N9        30.00F
WICHITA        MOSUNNY   86  68  54 N10       30.02F
OMAHA          MOSUNNY   80  61  52 N8        30.03F
LINCOLN        MOSUNNY   80  65  59 N9        30.06F
FALLS CITY     PTSUNNY   80  64  58 N6        30.02F
LAMONI         MOSUNNY   77  65  66 N9        30.01F
DES MOINES     CLOUDY    70  63  78 NW8       30.01S

$$





USA.gov is the U.S. government's official web portal to all federal, state and local government web resources and services.